Regional Weather Roundup
Issued by NWS New Orleans/Baton Rouge, LA

Home | Current Version | Previous Version | Text Only | Print | Product List | Glossary On
Versions: 1 2 3 4 5 6 7 8 9 10 11 12 13 14 15 16 17 18 19 20 21 22 23 24 25 26 27 28 29 30 31 32 33 34 35 36 37 38 39 40 41 42 43 44 45 46 47 48 49 50
000
ASUS44 KLIX 140610
RWRLIX
NEW ORLEANS REGIONAL WEATHER ROUNDUP
NATIONAL WEATHER SERVICE NEW ORLEANS LA
1200 AM CST SUN FEB 14 2016

NOTE: "FAIR" INDICATES FEW OR NO CLOUDS BELOW 12,000 FEET WITH NO
      SIGNIFICANT WEATHER AND/OR OBSTRUCTIONS TO VISIBILITY.
      SKY/WX - SKY CONDITION AND SIGNIFICANT WEATHER.
      TMP - AIR TEMPERATURE.     DP    - DEWPOINT TEMPERATURE.
      RH  - RELATIVE HUMIDITY.   PRES  - PRESSURE.
      HI  - HEAT INDEX.          WCI   - WIND CHILL INDEX.

*  THESE STATIONS ARE NOT NWS OR FAA STATIONS AND ARE NOT UNDER
   NWS QUALITY CONTROL.

LAZ038-040-048-061>063-065>067-069-140700-
SOUTHEAST LOUISIANA

CITY           SKY/WX    TMP DP  RH WIND       PRES   REMARKS
N.O. AUDUBON     N/A    N/A N/A N/A MISG        N/A
6HR MIN TEMP:  50; 6HR MAX TEMP:  58;

N.O. INTL ARPT PTCLDY    48  37  65 SE3       30.30F
6HR MIN TEMP:  48; 6HR MAX TEMP:  60;

N.O. LAKEFRONT CLEAR     49  41  74 E7        30.31F
6HR MIN TEMP:  48; 6HR MAX TEMP:  55;

N.O. DOWNTOWN* NOT AVBL
RESERVE*         N/A     49  43  78 E3        30.29F
6HR MIN TEMP:  48; 6HR MAX TEMP:  56;

SLIDELL        CLEAR     43  33  68 E3        30.31F
6HR MIN TEMP:  39; 6HR MAX TEMP:  54;

BATON ROUGE    PTCLDY    46  37  71 E7        30.28F
6HR MIN TEMP:  46; 6HR MAX TEMP:  59;

BOOTHVILLE     CLEAR     49  41  74 N3        30.31F
6HR MIN TEMP:  46; 6HR MAX TEMP:  52;

BELLE CHASSE   CLEAR     39  38  96 CALM      30.30F
6HR MIN TEMP:  39; 6HR MAX TEMP:  54;

BOGALUSA*        N/A     37  32  82 CALM      30.33F
6HR MIN TEMP:  37; 6HR MAX TEMP:  54;

GALLIANO*      CLEAR     49  42  77 CALM      30.29F
6HR MIN TEMP:  44; 6HR MAX TEMP:  56;

NEW ROADS*       N/A     48  37  65 CALM      30.27F
6HR MIN TEMP:  48; 6HR MAX TEMP:  56;

GONZALES*        N/A     49  40  72 SE3       30.28F
6HR MIN TEMP:  46; 6HR MAX TEMP:  57;

HAMMOND*       CLEAR     46  30  53 E7        30.30F
HOUMA*         CLEAR     44  41  90 E6        30.29F
6HR MIN TEMP:  43; 6HR MAX TEMP:  56;

PORT FOURCHON* CLEAR     55  41  58 E9        30.29F

$$

MSZ070-080>082-140700-
SOUTHERN MISSISSIPPI

CITY           SKY/WX    TMP DP  RH WIND       PRES   REMARKS
MCCOMB         CLOUDY    42  26  53 SE5       30.29F
6HR MIN TEMP:  42; 6HR MAX TEMP:  55;

GULFPORT       PTCLDY    44  23  43 E7        30.32F
6HR MIN TEMP:  44; 6HR MAX TEMP:  57;

BILOXI         CLEAR     45  22  41 E7        30.31F
6HR MIN TEMP:  45; 6HR MAX TEMP:  54;

PASCAGOULA     CLEAR     42  24  49 NE3       30.33F
6HR MIN TEMP:  38; 6HR MAX TEMP:  51;


$$

COASTAL OBSERVATIONS
LAKE AND NEARSHORE STATIONS

STATION/POSITION TIME  TEMP    WIND        PRES    WAVE
                       AIR SEA DIR/SP/G            HT/PER
                 (UTC) (F)     (DEG/KT/KT) (MB)    (FT/S)
PASCAGOULA       0500   47      60/ 10/ 14 1026.8
WAVELAND YACHT   0500   49 55   80/  8/ 11 1027.1
GRAND ISLE       0500   55 62  100/  6/  9 1026.5
NEW CANAL        0500   50 56  140/  4/  6 1026.0
SHELL BEACH      0500   53 58   90/  4/  5 1026.2

OFFSHORE STATIONS

STATION/POSITION TIME  TEMP    WIND        PRES    WAVE
                       AIR SEA DIR/SP/G            HT/PER
                 (UTC) (F)     (DEG/KT/KT) (MB)    (FT/S)

$$




USA.gov is the U.S. government's official web portal to all federal, state and local government web resources and services.